Theta_e
319 311 309 308 300 298 295 298 300 300 303 308 313 311 311 312 312 298 329 337 342 345 348 348 349 350 350 350 351 352 352 353 354 354 354 354 354 354 353 353 351 351 351 349 349 350 349 349 349
315 311 306 301 296 291 295 299 301 303 311 319 321 319 317 314 327 329 331 340 343 346 347 347 348 349 350 350 351 352 353 353 353 353 354 354 354 353 353 352 351 351 351 349 348 348 348 348 348
311 311 302 297 292 292 294 300 301 310 319 314 316 319 321 320 329 330 335 341 345 345 347 346 348 348 349 349 350 351 351 351 351 352 353 354 354 353 352 351 351 351 352 349 347 347 346 346 345
308 305 299 294 292 296 297 299 304 311 311 315 316 316 324 331 330 333 340 343 343 345 346 346 346 347 349 349 350 350 349 348 349 351 353 354 354 353 352 350 351 352 351 349 347 346 346 344 343
305 298 292 291 291 296 300 301 308 307 312 315 316 317 320 329 335 338 339 341 341 343 345 345 344 346 348 350 350 349 348 347 348 349 351 352 353 352 350 349 350 351 351 350 348 346 345 343 342
298 295 290 288 292 297 300 302 309 308 313 316 318 319 320 332 333 335 337 337 341 342 345 345 347 346 347 348 348 346 346 347 347 348 348 350 350 349 349 349 348 349 349 347 345 344 343 342 341
295 291 288 288 292 295 299 304 304 311 314 315 321 317 321 327 332 333 331 337 338 342 344 344 345 346 345 344 344 343 344 345 346 345 346 346 346 346 348 348 348 348 347 344 343 342 341 341 340
296 293 290 289 291 294 300 304 307 311 311 324 323 317 317 325 331 330 334 334 336 340 342 344 344 344 343 343 342 342 343 343 343 344 344 343 343 345 346 346 347 346 345 344 342 341 340 339 338
296 290 286 290 292 295 301 298 304 309 317 321 323 322 326 330 331 331 331 330 331 336 339 343 343 343 341 342 343 343 344 343 343 343 342 339 339 341 344 343 344 344 342 341 341 340 338 337 337
295 288 291 296 295 297 299 296 299 309 315 320 320 326 330 330 330 328 328 328 330 331 334 340 342 342 342 343 342 340 341 341 340 340 339 336 335 338 342 342 341 341 339 339 339 338 337 336 331
292 291 295 298 300 298 297 297 299 306 310 317 319 323 328 329 328 328 329 330 330 332 333 337 340 341 341 341 342 340 340 339 338 336 336 333 336 338 339 337 339 336 338 334 335 334 332 331 329
292 297 298 299 299 298 297 300 299 300 302 307 322 326 328 328 328 329 329 330 330 331 332 335 338 338 339 340 341 339 339 338 337 336 336 334 333 335 337 336 334 332 332 330 330 330 330 329 329
295 297 299 300 300 299 299 299 300 300 302 307 323 326 327 328 329 331 332 333 332 331 332 333 336 337 338 339 339 338 337 337 336 336 336 334 333 333 334 334 334 331 329 328 328 327 328 327 326
298 297 298 298 299 298 297 298 298 302 300 302 315 321 326 328 329 331 331 331 334 335 333 333 333 336 337 337 337 337 337 336 335 335 335 334 332 332 332 332 333 331 329 327 327 327 325 325 324
299 295 296 296 297 298 297 296 296 302 300 301 301 316 321 327 329 329 332 332 334 337 337 334 332 334 335 335 335 336 336 335 334 334 334 334 331 331 331 332 332 332 329 326 325 324 323 323 324
293 292 289 294 298 299 298 292 297 301 298 300 300 298 305 319 322 328 331 333 335 336 338 337 336 332 332 333 334 334 334 334 333 332 333 333 331 331 330 331 332 332 330 328 325 324 322 322 323
290 285 287 291 298 296 295 291 298 299 298 298 298 298 298 299 303 309 324 324 323 336 339 337 337 333 331 331 332 331 331 332 332 332 331 333 331 330 331 331 332 330 330 328 326 323 324 322 324
286 285 286 289 293 295 294 291 295 298 296 297 297 297 297 298 299 303 304 310 311 329 338 340 337 336 333 332 332 332 331 331 331 331 331 332 333 330 331 331 331 331 330 328 327 324 325 326 326
291 288 288 287 294 293 292 291 294 296 293 294 295 297 297 297 303 301 303 303 303 308 331 339 337 338 335 333 330 332 331 331 332 332 332 332 333 332 330 331 331 332 330 329 329 327 325 326 326
293 290 289 291 295 292 290 290 293 294 295 297 298 297 297 296 298 301 301 302 305 321 332 338 339 338 337 336 335 334 334 334 334 335 334 334 334 333 332 331 333 332 332 330 329 328 324 326 326
292 291 291 290 292 292 289 290 290 296 294 296 296 297 298 299 299 301 301 301 301 310 332 337 339 340 339 339 337 333 334 332 332 332 334 335 335 335 334 333 333 334 333 332 330 330 329 325 325
290 295 294 292 289 285 290 284 288 292 293 296 296 295 296 297 298 299 300 300 300 304 325 335 338 340 341 340 338 336 334 333 336 336 336 335 337 336 336 335 334 335 336 334 333 332 331 328 325
293 297 294 293 290 286 289 284 291 293 292 295 296 297 296 297 297 298 298 300 303 301 312 332 336 339 340 341 340 338 336 336 332 334 334 335 335 338 337 337 335 335 336 336 333 331 331 330 325
300 296 294 292 288 282 289 286 289 290 291 293 296 298 299 299 297 297 298 298 301 307 312 327 332 335 339 340 339 338 337 334 332 332 333 333 334 337 338 337 337 336 336 335 333 332 331 330 329
298 293 285 282 280 282 291 285 291 292 293 297 297 297 299 300 296 298 303 311 313 316 317 324 331 330 335 338 338 338 337 335 334 333 334 332 332 332 335 335 335 335 335 335 333 330 330 329 328
295 293 285 279 280 283 289 284 291 298 301 299 298 298 298 298 297 299 308 314 317 319 320 323 326 325 325 332 334 335 336 334 336 334 335 335 334 334 335 334 335 334 333 332 332 332 333 331 330
293 290 296 288 288 283 286 288 294 296 296 298 298 299 298 300 300 300 311 319 320 320 322 324 323 323 323 320 321 325 331 333 333 330 332 334 331 329 330 332 332 331 331 331 331 330 327 329 328
295 298 288 290 282 280 284 284 287 292 296 298 298 298 299 302 302 302 315 321 322 321 319 321 322 324 323 323 323 323 325 326 326 326 328 328 329 329 331 331 332 331 331 329 328 327 326 325 323
292 291 292 291 289 283 282 286 292 293 295 296 298 299 299 299 300 309 317 322 322 319 319 319 321 322 322 322 322 323 323 324 324 324 324 325 326 328 330 330 330 329 328 327 326 325 323 323 320
295 293 293 286 285 288 287 287 295 297 298 300 299 298 299 300 308 314 319 321 320 320 318 320 318 320 324 327 327 326 326 327 325 324 324 325 326 328 328 328 327 326 325 324 323 320 321 319 316
Wind_Speed
5 4 2 4 5 6 2 5 3 4 1 4 8 6 8 3 5 6 2 9 16 16 13 14 16 17 17 16 16 17 17 17 16 16 16 16 16 16 15 14 14 15 15 16 17 17 17 17 15
4 1 4 3 5 4 5 5 6 8 6 9 7 4 3 2 3 6 7 7 16 16 13 13 17 18 17 17 15 16 17 17 16 15 15 15 15 15 15 13 13 14 15 17 17 17 16 14 12
3 3 4 5 3 3 3 3 4 4 14 6 7 0 6 7 2 8 5 15 15 13 12 13 17 17 18 17 16 16 16 16 16 14 15 14 14 14 14 12 12 12 14 16 17 16 15 11 11
3 5 5 5 2 6 5 1 2 6 4 3 5 6 3 3 9 7 15 16 15 11 10 13 16 17 17 17 16 16 15 15 15 15 14 13 13 14 14 12 11 12 13 15 15 14 12 11 10
5 4 4 2 4 5 6 4 6 4 3 2 0 4 3 4 8 16 15 15 16 11 9 12 14 17 18 18 17 16 16 14 13 14 14 13 11 11 12 12 11 10 12 13 13 11 9 9 9
5 4 5 0 5 6 8 6 10 3 1 3 5 5 2 3 12 11 12 11 11 14 11 12 14 15 17 17 16 15 15 15 13 13 14 14 12 10 9 10 11 10 9 10 11 11 10 9 8
5 4 3 3 4 7 5 5 4 8 6 4 5 5 1 1 7 10 8 8 7 9 13 10 10 12 14 14 14 14 15 15 15 12 12 13 12 12 9 9 10 10 9 9 10 10 10 8 6
5 5 3 4 2 5 5 6 5 5 6 4 4 6 6 6 10 10 8 7 7 7 10 14 8 8 9 10 13 13 14 15 15 15 12 12 12 13 11 10 9 10 10 8 8 8 7 6 4
4 5 2 5 4 4 5 5 2 2 7 1 4 7 6 18 15 11 8 5 5 5 9 12 14 9 8 8 10 12 14 14 14 13 14 11 5 7 9 9 10 9 9 9 9 8 7 5 3
5 4 10 6 2 4 6 4 4 3 2 2 4 7 17 19 18 16 14 12 10 11 9 11 13 12 9 7 9 8 8 7 7 7 8 5 6 6 7 8 11 10 8 8 8 7 6 4 2
4 6 5 6 6 4 6 4 2 7 2 6 9 12 16 17 13 14 14 16 23 15 10 10 12 12 13 8 8 5 5 5 5 7 7 5 5 5 4 3 4 4 7 4 5 4 3 4 3
1 7 5 7 2 6 6 7 2 5 5 4 8 19 16 15 16 17 15 15 12 14 14 12 11 12 12 7 8 8 7 6 6 7 9 7 5 6 6 4 4 4 4 5 4 3 4 5 4
7 5 5 7 9 8 6 9 8 5 6 4 8 9 17 17 17 16 17 15 12 13 15 16 14 13 12 10 8 8 8 7 8 7 9 7 7 7 6 5 5 4 4 5 5 4 4 5 5
4 4 8 4 9 6 4 8 5 9 4 6 10 10 14 18 19 16 11 12 14 14 15 14 16 14 13 11 11 9 8 8 6 7 9 10 7 7 7 6 6 5 5 4 5 6 5 5 4
4 5 6 5 5 7 3 9 6 9 1 7 8 12 10 16 15 17 19 17 18 15 14 18 17 15 15 14 11 9 8 7 7 7 9 11 9 8 9 7 7 6 5 6 4 4 3 4 3
3 2 3 3 7 7 9 10 5 11 4 10 9 9 9 15 15 17 18 15 14 11 16 16 14 17 16 15 11 9 8 8 8 7 7 11 10 10 8 7 7 6 6 6 5 4 4 5 4
4 6 6 2 7 3 8 3 7 5 5 10 10 11 10 12 12 13 16 15 12 17 15 16 17 18 18 15 10 9 9 8 8 7 7 11 11 11 9 8 7 7 6 6 6 4 4 4 4
7 4 5 7 6 7 9 10 9 11 8 12 12 11 10 10 16 15 16 17 12 17 17 15 15 17 17 10 7 7 6 8 8 9 10 12 11 12 10 8 8 8 7 6 5 5 6 4 5
3 4 6 3 5 3 7 7 12 10 5 10 11 14 11 12 18 10 11 14 8 10 14 16 17 16 13 11 12 10 13 11 10 10 13 13 13 13 12 9 7 9 9 9 9 6 6 7 3
7 7 11 6 8 4 6 12 12 10 9 11 14 13 12 7 8 8 7 6 9 13 17 15 18 15 16 13 13 8 9 8 8 8 9 12 13 13 13 13 10 11 8 8 8 10 3 4 5
12 14 13 9 7 6 3 14 7 11 6 7 9 11 9 12 12 9 8 10 9 10 14 17 18 20 18 16 9 3 5 3 5 7 9 12 14 14 14 14 12 11 10 10 9 9 11 6 5
18 10 6 5 4 9 7 14 7 10 10 8 9 8 11 10 8 8 9 8 10 13 13 15 16 17 16 15 12 16 12 10 10 10 8 9 14 14 13 13 13 12 10 11 10 9 9 6 7
16 7 9 8 11 3 11 5 11 7 10 12 10 10 10 11 12 12 10 11 13 9 12 14 13 13 14 16 14 12 11 10 2 4 8 9 9 14 14 14 13 12 10 11 10 10 12 10 5
5 7 5 5 5 7 20 11 19 11 11 6 6 9 10 11 10 10 10 9 9 7 10 11 14 14 14 15 14 16 17 9 7 6 8 7 7 9 12 13 12 12 11 11 11 12 13 12 10
9 8 5 7 4 17 15 8 24 5 8 14 12 11 11 11 7 7 8 7 8 9 10 11 14 13 14 16 15 15 14 11 12 10 9 8 7 5 10 11 11 10 12 11 9 10 10 11 10
22 17 8 11 12 19 6 12 21 14 20 10 9 9 9 10 8 9 10 8 8 9 11 12 14 12 11 13 13 11 10 7 8 8 7 8 8 9 9 10 10 12 10 9 9 8 8 8 8
13 22 25 4 3 0 6 6 11 3 7 7 9 8 9 12 13 13 9 10 8 9 12 14 12 8 9 9 7 7 8 8 8 7 6 6 6 5 8 10 10 10 10 10 10 8 7 6 7
21 9 16 12 12 12 6 6 10 11 18 13 12 11 10 13 16 9 10 12 11 8 5 8 7 8 7 7 6 5 7 6 6 5 7 6 4 5 6 7 8 8 8 8 8 6 7 7 4
18 20 14 5 15 15 17 15 7 10 8 11 13 9 8 12 12 9 10 11 10 7 8 8 8 9 7 6 6 6 5 6 6 5 5 5 4 5 6 7 6 8 8 7 6 6 7 8 7
10 20 23 14 14 11 16 19 4 12 14 15 13 9 8 6 8 3 5 9 11 10 8 9 8 10 11 11 10 8 7 6 6 5 5 5 5 5 6 6 6 6 6 7 10 10 6 9 6
Wind_Direction
324 327 141 39 45 58 304 263 180 159 223 230 137 143 178 145 161 203 315 151 132 145 156 153 149 140 136 130 128 124 122 119 118 119 119 119 116 114 110 107 107 108 108 106 105 106 107 109 106
326 141 45 81 82 54 286 251 198 200 197 118 88 70 80 86 121 131 115 154 143 145 153 155 153 145 141 137 137 131 128 124 120 119 120 121 118 115 111 109 112 117 117 115 114 113 112 110 107
278 53 79 90 94 156 216 265 274 146 140 154 123 148 160 161 55 153 124 140 135 142 153 157 155 147 146 142 142 137 133 130 126 124 122 122 121 119 116 116 116 117 119 119 119 118 117 112 111
48 9 31 82 212 251 216 332 240 151 260 270 117 88 53 195 152 163 137 138 133 141 150 156 156 150 150 147 147 142 139 136 135 131 127 128 130 130 127 124 128 130 127 123 122 125 127 122 111
35 58 52 45 267 270 258 235 167 251 198 160 321 133 49 27 95 126 138 142 140 143 150 158 158 156 154 154 151 147 144 142 140 138 134 134 134 135 136 135 136 135 134 131 131 132 126 121 119
33 95 54 230 278 275 285 240 144 234 268 163 97 94 133 88 122 136 138 142 147 147 150 160 162 163 158 159 155 150 148 147 148 148 144 144 142 145 143 142 140 137 139 140 137 134 133 134 135
108 81 202 223 254 305 274 290 126 174 157 239 142 93 43 145 117 126 120 111 125 140 151 161 167 167 162 159 156 154 154 154 155 156 152 152 152 151 156 154 149 149 149 150 143 144 145 152 145
105 89 156 257 228 271 288 309 137 140 190 109 142 166 191 177 130 102 96 106 120 142 158 165 166 167 168 167 160 160 161 159 161 160 161 161 160 156 161 158 163 161 159 163 155 157 160 169 158
125 60 198 250 191 255 322 339 37 31 129 112 156 157 164 132 123 112 113 93 123 162 173 171 173 173 171 167 169 166 168 166 166 166 166 160 162 160 166 158 171 170 170 169 176 179 181 203 228
108 143 207 229 282 312 304 299 324 83 42 347 50 60 125 142 152 156 165 170 179 188 189 180 177 177 173 175 168 164 174 174 172 169 169 160 158 162 168 165 174 172 173 178 186 195 201 217 254
172 205 226 265 275 277 283 285 303 123 247 225 183 150 150 155 165 170 180 182 188 184 181 187 179 175 179 182 174 170 172 171 178 170 165 165 159 166 170 158 178 161 174 179 180 203 221 243 254
203 240 243 279 305 332 293 285 243 175 209 280 185 163 157 169 177 181 189 194 181 182 185 184 183 177 181 167 182 181 178 177 180 183 170 168 166 175 176 177 178 168 175 175 179 191 215 241 259
179 231 257 276 309 275 274 256 243 238 226 96 117 166 174 181 192 196 196 194 181 194 189 188 183 185 180 173 180 183 187 186 184 179 182 175 176 180 177 181 175 183 172 180 183 191 204 232 240
209 227 280 299 290 271 273 258 172 265 129 144 153 199 195 192 195 203 200 200 192 192 196 185 188 188 182 185 184 187 184 186 184 188 186 184 182 183 181 186 186 185 186 187 187 195 194 219 211
255 284 309 199 230 240 169 290 195 239 187 184 207 201 210 212 202 211 205 199 200 200 186 191 188 184 189 189 185 186 187 180 189 194 191 189 183 182 190 185 190 195 186 183 186 213 207 215 220
280 194 221 197 161 251 139 262 263 259 200 252 260 210 220 225 219 214 224 212 210 196 189 186 186 190 191 191 186 187 185 184 191 193 192 195 192 185 185 192 198 187 184 186 186 186 217 234 204
241 237 214 295 192 184 179 217 247 262 242 266 254 262 209 236 237 231 225 223 195 203 192 186 188 189 193 192 184 186 179 190 193 191 195 196 197 193 191 197 197 179 190 195 193 191 189 222 223
217 232 252 203 228 177 245 252 256 271 212 230 250 259 251 250 230 227 218 228 194 203 201 190 190 191 187 183 173 179 181 194 195 197 201 196 200 197 195 199 193 183 190 197 204 196 193 193 211
153 209 257 250 252 202 240 243 271 268 227 257 257 256 244 243 258 223 210 218 196 184 197 190 184 189 176 181 182 187 199 195 202 203 201 197 201 201 200 204 188 190 197 201 192 198 197 223 184
232 242 253 287 266 188 280 263 258 263 256 240 255 254 240 251 264 242 230 201 188 188 189 184 194 181 189 189 196 195 189 206 205 204 205 201 201 202 202 204 199 197 195 200 195 191 162 209 174
222 225 240 243 326 279 328 285 245 269 226 260 258 241 237 228 240 248 233 221 199 192 190 188 189 187 192 194 176 117 111 94 184 203 204 202 198 202 205 204 204 197 201 204 199 193 206 197 201
229 197 215 201 200 247 148 270 217 234 256 231 261 237 237 238 244 247 250 237 211 217 195 195 191 189 186 184 182 187 191 188 208 204 202 198 201 204 205 205 203 202 199 206 198 195 199 165 200
241 175 189 196 241 21 262 295 255 172 255 252 241 247 239 236 230 238 236 235 244 199 191 191 185 185 181 179 188 188 200 213 165 167 183 197 200 208 207 206 201 202 203 207 194 190 199 205 171
205 240 223 210 200 229 240 200 263 224 213 253 227 242 247 252 248 238 244 244 241 195 173 176 174 180 177 177 182 193 203 194 179 182 190 197 199 206 210 209 206 212 211 211 202 196 198 196 210
210 197 227 228 202 233 229 197 244 268 228 209 214 219 242 256 264 260 243 223 215 191 173 171 173 177 178 180 187 197 202 194 195 188 194 182 194 200 211 195 204 206 208 212 201 192 198 199 204
216 198 181 206 212 237 153 213 237 218 240 242 223 227 244 262 255 245 235 221 204 187 171 165 170 169 176 179 191 194 196 194 200 195 193 197 200 204 198 203 208 211 200 200 200 204 204 189 200
231 221 219 256 220 124 212 254 285 238 225 234 252 250 257 262 256 231 214 200 189 190 179 165 154 157 173 176 172 186 191 194 198 191 191 199 189 180 184 195 199 196 187 188 189 189 178 179 179
227 215 219 223 227 234 250 245 233 222 240 268 264 252 256 281 272 221 194 195 189 179 168 129 141 155 156 154 164 176 181 178 170 163 185 182 167 156 173 191 199 191 190 174 176 179 171 154 166
219 228 243 237 216 227 241 246 203 227 226 228 247 245 256 277 268 227 200 189 174 141 162 150 150 149 151 152 158 159 159 166 161 173 176 176 147 161 175 176 189 184 177 170 181 183 170 153 160
225 227 225 226 230 228 232 246 281 216 238 247 247 267 286 277 281 226 173 160 157 160 166 165 161 160 169 175 174 169 160 157 152 160 163 154 169 168 165 169 170 171 170 175 168 152 173 142 152